OBJECT B, 63292

Orbit data source: Space-Track

You're viewing an Uncataloged Satellite

Recently launched and/or uncataloged satellites may have evolving metadata. Metadata may include but not limited to: Owner, Maufacturer, Bus, Motor, and Mission.

OBJECT B, 63292 is a satellite owned by Yunyao yuhang (CN) in SSO that was launched on Mon, 17 Mar 2025 UTC via a GUSHENXING 1 launch vehicle from the Jiuquan Satellite Launch Center, China (JSC). Unknown objects in Earth's orbit typically refer to objects detected orbiting the Earth but have not yet been identified or cataloged. These objects could be anything from previously untracked satellites, spent rocket stages, debris from satellite collisions, or even natural meteoroids temporarily captured by Earth's gravity.

Loading next visibility...
Identifier
63292, 2025-055B
Orbit
SSO
Last TLE update
3 hours ago
Origin
Flag of CNYYAO (CN / PRC)
Manufacturer
Changguang WJ
Mission
Operational Commercial Meteo Radio Occ.
Bus & Motor
YY-1, Unknown motor
Mass
~50 kg wet, ~50 kg dry
Launch date (UTC)
2025-03-17 (2 months ago)
Launch vehicle
GUSHENXING 1
Launch site
Jiuquan Satellite Launch Center, China (JSC)
Object type
Unknown
Shape & HBR
Box + 1 Pan, 5 m
Radar Cross Section
5.339 m², Medium (>0.1 m² and < 1m²)

Expand to show TLE details & history

TLE from 3 hours ago
0 OBJECT B
1 63292U 25055B   25129.18182752  .00011246  00000-0  67358-3 0  9998
2 63292  97.6050 264.2170 0014795 113.3705 246.9082 15.11077403  7949
Epoch: 2025-05-09T04:21Z
Definitive object data (Epoch: 2025-05-09T04:21:49.897Z)
Latitude
-0.00011°
Longitude
-28.48254°
Altitude
540.009 km
Speed
7.59 km/s
True Right ascension
17h 36m 52s
True Declination
0° 00' 00"
Sunlit
Object was in full shadow at TLE epoch
Visualization TLE readout
Latitude
-81.15796°
Longitude
93.02438°
Altitude
570.202 km
Speed
7.57 km/s
Apparent Right ascension
02h 59m 48s
Apparent Declination
-61° 37' 02"
Sunlit
Object is in daylight
Visualization observer readout
Local Sidereal Time
15:16:19
Azimuth
174.721° S
Elevation
-68.153°
Doppler factor
1
Orbital elements
Apogee altitude
540.12 km
Perigee altitude
519.679 km
Semi-major axis
6,908.036 km
Eccentricity
0.0014795
Inclination
97.605°
RAAN
264.217°
Arg. of periapsis
113.3705°
True anomaly
246.75236°
Mean anomaly
246.9082°
Eccentric anomaly
246.83027°
Mean motion
3.78017 °/min
BSTAR
0.00067358
Orbital period
95.23 mins
Loading maneuver chart data...
Loading SW <> Apogee altitude chart data...
Loading historical data...
Loading historical data...
Loading historical data...
Loading historical data...
Loading historical data...
Loading historical data...
Loading historical data...

OBJECT B Visibility forecast

Observer location: undefined°, undefined°

Span
Click to sort rows by Start time (UTC) header in descending order
Start Az.
Max El. time (UTC)
Max El. Az.
Max El.
End time (UTC)
End Az.
5 mins2025-05-09 09:16:23.029Z190.395° SSW2025-05-09 09:18:23.029Z258.772° W39.53°2025-05-09 09:21:23.029Z335.807° NNW
5 mins2025-05-09 22:25:23.029Z336.217° NNW2025-05-09 22:27:23.029Z281.491° WNW28.397°2025-05-09 22:30:23.029Z225.125° WSW
|